Terminal Aerodrome Forecast
Issued by NWS St Louis, MO

Home | Current Version | Previous Version | Text Only | Print | Product List | Glossary On
Versions: 1 2 3 4 5 6 7 8 9 10 11 12 13 14 15 16 17 18 19 20 21 22 23 24 25 26 27
000
FTUS43 KLSX 160900 AAA
TAFSTL
TAF AMD
KSTL 160922Z 1609/1712 02005KT P6SM SCT009 BKN012 OVC025
      TEMPO 1609/1613 4SM BR OVC008
     FM161600 03005KT P6SM SCT025=

USA.gov is the U.S. government's official web portal to all federal, state and local government web resources and services.